Tracking 34138 objects as of 15-May-2026
HD Live streaming from Space Station
objects crossing your sky now

STARLINK-37005

Track STARLINK-37005 now!
10-day predictions
STARLINK-37005 is classified as:


NORAD ID: 68107
Int'l Code: 2026-044G
Perigee: 471.3 km
Apogee: 474.1 km
Inclination: 97.3 °
Period: 93.9 minutes
Semi major axis: 6843 km
RCS: Unknown
Launch date: March 8, 2026
Source: United States (US)
Launch site: AIR FORCE WESTERN TEST RANGE (AFWTR)
Your satellite tracking list
Your tracking list is empty




NASA's NSSDC Master Catalog

Two Line Element Set (TLE):
1 68107U 26044G   26135.27230364  .00007012  00000-0  21938-3 0  9998
2 68107  97.2852  95.9857 0002085  76.9533 283.1942 15.33434600 11783
Source of the keplerian elements: AFSPC